Gadsden, AL

9:26 AM CST on December 15, 2019 (GMT -0600)
Gadsden Municipal

Weather History for KGAD - June, 2019

Change the Weather History Date:

Saturday, June 1, 2019

  Actual Average Record
Temperature  
Mean Temperature 72 °F -  
Max Temperature 88 °F 79 °F 96 °F (1951)
Min Temperature 57 °F 59 °F 44 °F (1930)
Cooling Degree Days 8    
Growing Degree Days 22 (Base 50)    
Moisture  
Dew Point 61 °F    
Average Humidity 71    
Maximum Humidity 100    
Minimum Humidity 39    
Precipitation  
Precipitation 0.00 in - - ()
Sea Level Pressure  
Sea Level Pressure 29.92 in    
Wind  
Wind Speed 3 mph ()    
Max Wind Speed 14 mph    
Max Gust Speed -    
Visibility 10.0 miles    
Events      
Averages and records for this station are not official NWS values.
T = Trace of Precipitation, MM = Missing Value Source: Averaged Metar Reports

Daily Weather History Graph

Daily Weather History Graph

Search for Another Location

Airport or City:

Astronomy

Jun. 01, 2019 Rise Set
Actual Time 5:34 AM CDT 7:50 PM CDT
Civil Twilight 5:05 AM CDT 8:19 PM CDT
Nautical Twilight 4:30 AM CDT 8:54 PM CDT
Astronomical Twilight 3:52 AM CDT 9:32 PM CDT
Moon 4:30 AM CDT (6/1) 6:09 PM CDT (6/1)
Length of Visible Light 15h 13m
Length of Day
14h 16m
Waning Crescent, 4% of the Moon is Illuminated
Jun 1
Waning Crescent
Jun 3
New
Jun 10
First Quarter
Jun 17
Full
Jun 25
Last Quarter

Hourly Weather History & Observations

Time (CDT) Temp. Heat Index Dew Point Humidity Pressure Visibility Wind Dir Wind Speed Gust Speed Precip Events Conditions
12:56 AM 62.1 °F - 62.1 °F 100% 29.93 in 10.0 mi Calm Calm - N/A   Clear
1:56 AM 61.0 °F - 61.0 °F 100% 29.92 in 10.0 mi Calm Calm - N/A   Clear
2:56 AM 59.0 °F - 59.0 °F 100% 29.93 in 10.0 mi Calm Calm - N/A   Clear
3:56 AM 59.0 °F - 59.0 °F 100% 29.93 in 10.0 mi Calm Calm - N/A   Clear
4:56 AM 57.9 °F - 57.9 °F 100% 29.95 in 10.0 mi SW 3.5 mph - N/A   Clear
5:56 AM 59.0 °F - 59.0 °F 100% 29.96 in 10.0 mi Calm Calm - N/A   Clear
6:56 AM 64.0 °F - 64.0 °F 100% 29.96 in 10.0 mi Calm Calm - N/A   Clear
7:56 AM 69.1 °F - 64.9 °F 87% 29.96 in 10.0 mi Calm Calm - N/A   Clear
8:56 AM 75.9 °F - 64.9 °F 69% 29.96 in 10.0 mi WSW 3.5 mph - N/A   Clear
9:56 AM 82.0 °F 82.4 °F 60.1 °F 47% 29.94 in 10.0 mi West 13.8 mph - N/A   Partly Cloudy
10:56 AM 82.0 °F 82.4 °F 60.1 °F 47% 29.95 in 10.0 mi West 11.5 mph - N/A   Scattered Clouds
11:56 AM 82.9 °F 83.3 °F 61.0 °F 47% 29.94 in 10.0 mi West 8.1 mph - N/A   Mostly Cloudy
12:56 PM 86.0 °F 86.1 °F 61.0 °F 43% 29.92 in 10.0 mi NW 8.1 mph - N/A   Scattered Clouds
1:56 PM 84.0 °F 83.8 °F 59.0 °F 43% 29.91 in 10.0 mi WSW 5.8 mph - N/A   Scattered Clouds
2:56 PM 87.1 °F 86.7 °F 60.1 °F 40% 29.91 in 10.0 mi NW 9.2 mph - N/A   Partly Cloudy
3:56 PM 88.0 °F 87.6 °F 60.1 °F 39% 29.90 in 10.0 mi NW 9.2 mph - N/A   Partly Cloudy
4:56 PM 86.0 °F 85.4 °F 59.0 °F 40% 29.90 in 10.0 mi WNW 9.2 mph - N/A   Clear
5:56 PM 84.9 °F 84.8 °F 60.1 °F 43% 29.90 in 10.0 mi WNW 5.8 mph - N/A   Clear
6:56 PM 82.0 °F 82.4 °F 60.1 °F 47% 29.90 in 10.0 mi WNW 5.8 mph - N/A   Clear
7:56 PM 75.9 °F - 63.0 °F 64% 29.89 in 10.0 mi West 3.5 mph - N/A   Clear
8:56 PM 70.0 °F - 64.9 °F 84% 29.90 in 10.0 mi Calm Calm - N/A   Clear
9:56 PM 68.0 °F - 64.9 °F 90% 29.91 in 10.0 mi Calm Calm - N/A   Clear
11:56 PM 64.0 °F - 64.0 °F 100% 29.90 in 10.0 mi WSW 3.5 mph - N/A   Clear